Time,TemperatureF,DewpointF,PressureIn,WindDirection,WindDirectionDegrees,WindSpeedMPH,WindSpeedGustMPH,Humidity,HourlyPrecipIn,Conditions,Clouds,dailyrainin,SoftwareType,DateUTC
2013-03-01 00:00:00,30.5,25.4,29.80,WNW,283,0.0,0.0,81,0.00,,CLR,0.00,VWS V14.00,2013-03-01 05:00:00,
2013-03-01 00:05:00,30.2,25.7,29.80,WNW,283,0.0,0.0,83,0.00,,CLR,0.00,VWS V14.00,2013-03-01 05:05:00,
2013-03-01 00:06:00,30.2,25.7,29.80,WNW,283,0.0,0.0,83,0.00,,CLR,0.00,VWS V14.00,2013-03-01 05:06:00,
2013-03-01 00:11:00,29.9,25.4,29.80,WNW,283,0.0,0.0,83,0.00,,CLR,0.00,VWS V14.00,2013-03-01 05:11:00,
2013-03-01 00:16:00,29.7,25.5,29.80,WNW,283,0.0,0.0,84,0.00,,CLR,0.00,VWS V14.00,2013-03-01 05:16:00,
2013-03-01 00:21:00,29.6,25.6,29.80,WNW,283,0.0,0.0,85,0.00,,CLR,0.00,VWS V14.00,2013-03-01 05:21:00,
2013-03-01 00:26:00,29.5,25.6,29.80,WNW,283,0.0,0.0,85,0.00,,CLR,0.00,VWS V14.00,2013-03-01 05:26:00,
2013-03-01 00:30:00,29.5,25.6,29.80,WNW,283,0.0,0.0,85,0.00,,CLR,0.00,VWS V14.00,2013-03-01 05:30:00,
2013-03-01 00:31:00,29.4,25.5,29.80,WNW,283,0.0,0.0,85,0.00,,CLR,0.00,VWS V14.00,2013-03-01 05:31:00,
2013-03-01 00:36:00,29.3,25.4,29.80,WNW,283,0.0,0.0,85,0.00,,CLR,0.00,VWS V14.00,2013-03-01 05:36:00,
2013-03-01 00:41:00,29.3,25.4,29.80,WNW,283,0.0,0.0,85,0.00,,CLR,0.00,VWS V14.00,2013-03-01 05:41:00,
2013-03-01 00:46:00,29.3,25.4,29.80,WNW,283,0.0,0.0,85,0.00,,CLR,0.00,VWS V14.00,2013-03-01 05:46:00,
2013-03-01 00:51:00,29.2,25.3,29.80,WNW,283,0.0,0.0,85,0.00,,CLR,0.00,VWS V14.00,2013-03-01 05:51:00,
2013-03-01 00:56:00,29.2,25.3,29.80,WNW,283,0.0,0.0,85,0.00,,CLR,0.00,VWS V14.00,2013-03-01 05:56:00,
2013-03-01 01:00:00,29.1,25.2,29.80,WNW,283,0.0,0.0,85,0.00,,CLR,0.00,VWS V14.00,2013-03-01 06:00:00,
2013-03-01 01:01:00,29.1,25.4,29.80,WNW,283,0.0,0.0,86,0.00,,CLR,0.00,VWS V14.00,2013-03-01 06:01:00,
2013-03-01 01:06:00,28.9,25.2,29.80,WNW,283,0.0,0.0,86,0.00,,CLR,0.00,VWS V14.00,2013-03-01 06:06:00,
2013-03-01 01:11:00,28.6,25.0,29.80,WNW,283,0.0,0.0,86,0.00,,CLR,0.00,VWS V14.00,2013-03-01 06:11:00,
2013-03-01 01:16:00,28.5,24.9,29.80,WNW,283,0.0,0.0,86,0.00,,CLR,0.00,VWS V14.00,2013-03-01 06:16:00,
2013-03-01 01:21:00,28.5,24.9,29.80,WNW,283,0.0,0.0,86,0.00,,CLR,0.00,VWS V14.00,2013-03-01 06:21:00,
2013-03-01 01:26:00,28.5,25.1,29.80,WNW,283,0.0,0.0,87,0.00,,CLR,0.00,VWS V14.00,2013-03-01 06:26:00,
2013-03-01 01:30:00,28.5,25.1,29.80,WNW,283,0.0,0.0,87,0.00,,CLR,0.00,VWS V14.00,2013-03-01 06:30:00,
2013-03-01 01:31:00,28.5,25.1,29.80,WNW,283,0.0,0.0,87,0.00,,CLR,0.00,VWS V14.00,2013-03-01 06:31:00,
2013-03-01 01:36:00,28.4,25.0,29.80,WNW,283,0.0,0.0,87,0.00,,CLR,0.00,VWS V14.00,2013-03-01 06:36:00,
2013-03-01 01:41:00,28.2,25.1,29.80,WNW,283,0.0,0.0,88,0.00,,CLR,0.00,VWS V14.00,2013-03-01 06:41:00,
2013-03-01 01:46:00,28.0,24.9,29.80,WNW,283,0.0,0.0,88,0.00,,CLR,0.00,VWS V14.00,2013-03-01 06:46:00,
2013-03-01 01:51:00,27.9,25.1,29.80,WNW,283,0.0,1.0,89,0.00,,CLR,0.00,VWS V14.00,2013-03-01 06:51:00,
2013-03-01 01:56:00,27.8,25.0,29.80,WNW,283,0.0,1.0,89,0.00,,CLR,0.00,VWS V14.00,2013-03-01 06:56:00,
2013-03-01 02:00:00,27.7,24.9,29.79,WNW,283,0.0,1.0,89,0.00,,CLR,0.00,VWS V14.00,2013-03-01 07:00:00,
2013-03-01 02:01:00,27.6,24.8,29.79,WNW,283,0.0,0.0,89,0.00,,CLR,0.00,VWS V14.00,2013-03-01 07:01:00,
2013-03-01 02:06:00,27.6,24.8,29.79,WNW,283,0.0,0.0,89,0.00,,CLR,0.00,VWS V14.00,2013-03-01 07:06:00,
2013-03-01 02:11:00,27.6,25.1,29.79,WNW,283,0.0,0.0,90,0.00,,CLR,0.00,VWS V14.00,2013-03-01 07:11:00,
2013-03-01 02:16:00,27.6,24.8,29.80,WNW,283,0.0,0.0,89,0.00,,CLR,0.00,VWS V14.00,2013-03-01 07:16:00,
2013-03-01 02:21:00,27.5,24.7,29.80,WNW,283,0.0,0.0,89,0.00,,CLR,0.00,VWS V14.00,2013-03-01 07:21:00,
2013-03-01 02:26:00,27.4,24.6,29.80,WNW,283,0.0,0.0,89,0.00,,CLR,0.00,VWS V14.00,2013-03-01 07:26:00,
2013-03-01 02:30:00,27.4,24.6,29.80,WNW,283,0.0,0.0,89,0.00,,CLR,0.00,VWS V14.00,2013-03-01 07:30:00,
2013-03-01 02:31:00,27.3,24.5,29.80,WNW,283,0.0,0.0,89,0.00,,CLR,0.00,VWS V14.00,2013-03-01 07:31:00,
2013-03-01 02:36:00,27.3,24.5,29.80,WNW,283,0.0,0.0,89,0.00,,CLR,0.00,VWS V14.00,2013-03-01 07:36:00,
2013-03-01 02:41:00,27.3,24.5,29.80,WNW,283,0.0,0.0,89,0.00,,CLR,0.00,VWS V14.00,2013-03-01 07:41:00,
2013-03-01 02:46:00,27.4,24.6,29.79,WNW,283,0.0,0.0,89,0.00,,CLR,0.00,VWS V14.00,2013-03-01 07:46:00,
2013-03-01 02:51:00,27.3,24.5,29.79,WNW,283,0.0,0.0,89,0.00,,CLR,0.00,VWS V14.00,2013-03-01 07:51:00,
2013-03-01 02:56:00,27.2,24.4,29.79,WNW,283,0.0,0.0,89,0.00,,CLR,0.00,VWS V14.00,2013-03-01 07:56:00,
2013-03-01 03:01:00,27.0,24.2,29.79,WNW,283,0.0,0.0,89,0.00,,CLR,0.00,VWS V14.00,2013-03-01 08:01:00,
2013-03-01 03:06:00,26.9,24.4,29.79,WNW,283,0.0,0.0,90,0.00,,CLR,0.00,VWS V14.00,2013-03-01 08:06:00,
2013-03-01 03:11:00,26.8,24.3,29.79,WNW,283,0.0,0.0,90,0.00,,CLR,0.00,VWS V14.00,2013-03-01 08:11:00,
2013-03-01 03:16:00,26.7,24.2,29.79,WNW,283,0.0,0.0,90,0.00,,CLR,0.00,VWS V14.00,2013-03-01 08:16:00,
2013-03-01 03:21:00,26.7,24.2,29.79,WNW,283,0.0,0.0,90,0.00,,CLR,0.00,VWS V14.00,2013-03-01 08:21:00,
2013-03-01 03:26:00,26.7,24.4,29.79,WNW,283,0.0,0.0,91,0.00,,CLR,0.00,VWS V14.00,2013-03-01 08:26:00,
2013-03-01 03:31:00,26.7,24.4,29.79,WNW,283,0.0,0.0,91,0.00,,CLR,0.00,VWS V14.00,2013-03-01 08:31:00,
2013-03-01 03:36:00,26.7,24.4,29.79,WNW,283,0.0,0.0,91,0.00,,CLR,0.00,VWS V14.00,2013-03-01 08:36:00,
2013-03-01 03:41:00,26.6,24.3,29.79,WNW,283,0.0,0.0,91,0.00,,CLR,0.00,VWS V14.00,2013-03-01 08:41:00,
2013-03-01 03:46:00,26.5,24.2,29.79,WNW,283,0.0,0.0,91,0.00,,CLR,0.00,VWS V14.00,2013-03-01 08:46:00,
2013-03-01 03:51:00,26.5,24.2,29.79,WNW,283,0.0,0.0,91,0.00,,CLR,0.00,VWS V14.00,2013-03-01 08:51:00,
2013-03-01 03:56:00,26.5,24.2,29.79,WNW,283,0.0,0.0,91,0.00,,CLR,0.00,VWS V14.00,2013-03-01 08:56:00,
2013-03-01 04:00:00,26.5,24.2,29.79,WNW,283,0.0,0.0,91,0.00,,CLR,0.00,VWS V14.00,2013-03-01 09:00:00,
2013-03-01 04:01:00,26.5,24.2,29.79,WNW,283,0.0,1.0,91,0.00,,CLR,0.00,VWS V14.00,2013-03-01 09:01:00,
2013-03-01 04:06:00,26.6,24.3,29.79,WNW,283,0.0,1.0,91,0.00,,CLR,0.00,VWS V14.00,2013-03-01 09:06:00,
2013-03-01 04:11:00,26.6,24.3,29.79,WNW,283,0.0,1.0,91,0.00,,CLR,0.00,VWS V14.00,2013-03-01 09:11:00,
2013-03-01 04:16:00,26.6,24.3,29.79,WNW,283,0.0,1.0,91,0.00,,CLR,0.00,VWS V14.00,2013-03-01 09:16:00,
2013-03-01 04:21:00,26.6,24.3,29.79,WNW,283,0.0,1.0,91,0.00,,CLR,0.00,VWS V14.00,2013-03-01 09:21:00,
2013-03-01 04:26:00,26.4,24.1,29.79,WNW,283,0.0,1.0,91,0.00,,CLR,0.00,VWS V14.00,2013-03-01 09:26:00,
2013-03-01 04:30:00,26.4,24.1,29.79,WNW,283,0.0,1.0,91,0.00,,CLR,0.00,VWS V14.00,2013-03-01 09:30:00,
2013-03-01 04:31:00,26.3,24.0,29.79,WNW,283,0.0,0.0,91,0.00,,CLR,0.00,VWS V14.00,2013-03-01 09:31:00,
2013-03-01 04:36:00,26.2,23.9,29.79,WNW,283,0.0,0.0,91,0.00,,CLR,0.00,VWS V14.00,2013-03-01 09:36:00,
2013-03-01 04:41:00,26.0,23.7,29.79,WNW,283,0.0,0.0,91,0.00,,CLR,0.00,VWS V14.00,2013-03-01 09:41:00,
2013-03-01 04:46:00,26.0,23.7,29.80,WNW,283,0.0,0.0,91,0.00,,CLR,0.00,VWS V14.00,2013-03-01 09:46:00,
2013-03-01 04:51:00,26.1,23.8,29.80,WNW,283,0.0,0.0,91,0.00,,CLR,0.00,VWS V14.00,2013-03-01 09:51:00,
2013-03-01 04:56:00,26.2,23.9,29.80,WNW,283,0.0,0.0,91,0.00,,CLR,0.00,VWS V14.00,2013-03-01 09:56:00,
2013-03-01 05:00:00,26.2,23.9,29.81,WNW,283,0.0,0.0,91,0.00,,CLR,0.00,VWS V14.00,2013-03-01 10:00:00,
2013-03-01 05:01:00,26.3,24.0,29.81,WNW,283,0.0,0.0,91,0.00,,CLR,0.00,VWS V14.00,2013-03-01 10:01:00,
2013-03-01 05:06:00,26.5,24.2,29.81,WNW,283,0.0,0.0,91,0.00,,CLR,0.00,VWS V14.00,2013-03-01 10:06:00,
2013-03-01 05:11:00,26.3,23.8,29.81,WNW,283,0.0,0.0,90,0.00,,CLR,0.00,VWS V14.00,2013-03-01 10:11:00,
2013-03-01 05:16:00,26.1,23.6,29.81,WNW,283,0.0,0.0,90,0.00,,CLR,0.00,VWS V14.00,2013-03-01 10:16:00,
2013-03-01 05:21:00,25.8,23.5,29.81,WNW,283,0.0,0.0,91,0.00,,CLR,0.00,VWS V14.00,2013-03-01 10:21:00,
2013-03-01 05:26:00,25.7,23.4,29.81,WNW,283,0.0,1.0,91,0.00,,CLR,0.00,VWS V14.00,2013-03-01 10:26:00,
2013-03-01 05:30:00,25.7,23.4,29.82,WNW,283,0.0,1.0,91,0.00,,CLR,0.00,VWS V14.00,2013-03-01 10:30:00,
2013-03-01 05:31:00,25.5,23.2,29.82,WNW,283,0.0,0.0,91,0.00,,CLR,0.00,VWS V14.00,2013-03-01 10:31:00,
2013-03-01 05:36:00,25.3,23.0,29.82,WNW,283,0.0,0.0,91,0.00,,CLR,0.00,VWS V14.00,2013-03-01 10:36:00,
2013-03-01 05:41:00,25.2,23.0,29.82,WNW,283,0.0,1.0,91,0.00,,CLR,0.00,VWS V14.00,2013-03-01 10:41:00,
2013-03-01 05:46:00,25.0,22.8,29.82,WNW,283,0.0,1.0,91,0.00,,CLR,0.00,VWS V14.00,2013-03-01 10:46:00,
2013-03-01 05:51:00,25.1,23.1,29.82,WNW,283,0.0,1.0,92,0.00,,CLR,0.00,VWS V14.00,2013-03-01 10:51:00,
2013-03-01 05:56:00,25.1,23.1,29.82,WNW,283,0.0,1.0,92,0.00,,CLR,0.00,VWS V14.00,2013-03-01 10:56:00,
2013-03-01 06:01:00,25.0,22.8,29.82,WNW,283,0.0,0.0,91,0.00,,CLR,0.00,VWS V14.00,2013-03-01 11:01:00,
2013-03-01 06:06:00,25.0,23.0,29.82,WNW,283,0.0,0.0,92,0.00,,CLR,0.00,VWS V14.00,2013-03-01 11:06:00,
2013-03-01 06:11:00,24.9,22.9,29.82,WNW,283,0.0,0.0,92,0.00,,CLR,0.00,VWS V14.00,2013-03-01 11:11:00,
2013-03-01 06:16:00,24.9,22.9,29.82,WNW,283,0.0,0.0,92,0.00,,CLR,0.00,VWS V14.00,2013-03-01 11:16:00,
2013-03-01 06:21:00,24.8,22.8,29.82,WNW,283,0.0,0.0,92,0.00,,CLR,0.00,VWS V14.00,2013-03-01 11:21:00,
2013-03-01 06:26:00,24.8,22.8,29.82,WNW,283,0.0,0.0,92,0.00,,CLR,0.00,VWS V14.00,2013-03-01 11:26:00,
2013-03-01 06:30:00,24.8,22.8,29.82,WNW,283,0.0,0.0,92,0.00,,CLR,0.00,VWS V14.00,2013-03-01 11:30:00,
2013-03-01 06:31:00,24.6,22.6,29.82,WNW,283,0.0,0.0,92,0.00,,CLR,0.00,VWS V14.00,2013-03-01 11:31:00,
2013-03-01 06:36:00,24.3,22.1,29.82,WNW,283,0.0,0.0,91,0.00,,CLR,0.00,VWS V14.00,2013-03-01 11:36:00,
2013-03-01 06:41:00,24.2,22.2,29.82,WNW,283,0.0,0.0,92,0.00,,CLR,0.00,VWS V14.00,2013-03-01 11:41:00,
2013-03-01 06:46:00,24.0,22.0,29.82,WNW,283,0.0,0.0,92,0.00,,CLR,0.00,VWS V14.00,2013-03-01 11:46:00,
2013-03-01 06:51:00,23.9,21.9,29.82,WNW,283,0.0,0.0,92,0.00,,CLR,0.00,VWS V14.00,2013-03-01 11:51:00,
2013-03-01 06:56:00,23.8,21.8,29.82,WNW,283,0.0,0.0,92,0.00,,CLR,0.00,VWS V14.00,2013-03-01 11:56:00,
2013-03-01 07:00:00,23.7,21.7,29.82,WNW,283,0.0,0.0,92,0.00,,CLR,0.00,VWS V14.00,2013-03-01 12:00:00,
2013-03-01 07:01:00,23.7,21.7,29.82,WNW,283,0.0,0.0,92,0.00,,CLR,0.00,VWS V14.00,2013-03-01 12:01:00,
2013-03-01 07:06:00,23.7,21.7,29.82,WNW,283,0.0,0.0,92,0.00,,CLR,0.00,VWS V14.00,2013-03-01 12:06:00,
2013-03-01 07:11:00,23.8,21.8,29.82,WNW,283,0.0,0.0,92,0.00,,CLR,0.00,VWS V14.00,2013-03-01 12:11:00,
2013-03-01 07:16:00,23.9,21.9,29.82,WNW,283,0.0,0.0,92,0.00,,CLR,0.00,VWS V14.00,2013-03-01 12:16:00,
2013-03-01 07:21:00,24.0,22.3,29.82,WNW,283,0.0,0.0,93,0.00,,CLR,0.00,VWS V14.00,2013-03-01 12:21:00,
2013-03-01 07:26:00,24.3,22.6,29.82,WNW,283,0.0,0.0,93,0.00,,CLR,0.00,VWS V14.00,2013-03-01 12:26:00,
2013-03-01 07:30:00,24.3,22.6,29.82,WNW,283,0.0,0.0,93,0.00,,CLR,0.00,VWS V14.00,2013-03-01 12:30:00,
2013-03-01 07:31:00,24.5,22.8,29.82,WNW,283,0.0,0.0,93,0.00,,CLR,0.00,VWS V14.00,2013-03-01 12:31:00,
2013-03-01 07:36:00,24.8,23.1,29.82,WNW,283,0.0,0.0,93,0.00,,CLR,0.00,VWS V14.00,2013-03-01 12:36:00,
2013-03-01 07:41:00,25.1,23.4,29.82,WNW,283,0.0,0.0,93,0.00,,CLR,0.00,VWS V14.00,2013-03-01 12:41:00,
2013-03-01 07:46:00,25.5,23.8,29.82,WNW,283,0.0,0.0,93,0.00,,CLR,0.00,VWS V14.00,2013-03-01 12:46:00,
2013-03-01 07:51:00,25.8,24.1,29.82,WNW,283,0.0,0.0,93,0.00,,CLR,0.00,VWS V14.00,2013-03-01 12:51:00,
2013-03-01 07:56:00,26.1,24.4,29.82,WNW,283,0.0,0.0,93,0.00,,CLR,0.00,VWS V14.00,2013-03-01 12:56:00,
2013-03-01 08:00:00,26.2,24.5,29.83,WNW,283,0.0,0.0,93,0.00,,CLR,0.00,VWS V14.00,2013-03-01 13:00:00,
2013-03-01 08:01:00,26.5,24.8,29.83,WNW,283,0.0,0.0,93,0.00,,CLR,0.00,VWS V14.00,2013-03-01 13:01:00,
2013-03-01 08:06:00,26.9,25.1,29.83,WNW,283,0.0,0.0,93,0.00,,CLR,0.00,VWS V14.00,2013-03-01 13:06:00,
2013-03-01 08:11:00,27.3,25.5,29.83,WNW,283,0.0,1.0,93,0.00,,CLR,0.00,VWS V14.00,2013-03-01 13:11:00,
2013-03-01 08:16:00,27.7,25.9,29.83,WNW,283,0.0,1.0,93,0.00,,CLR,0.00,VWS V14.00,2013-03-01 13:16:00,
2013-03-01 08:21:00,28.0,26.2,29.83,WNW,283,0.0,1.0,93,0.00,,CLR,0.00,VWS V14.00,2013-03-01 13:21:00,
2013-03-01 08:26:00,28.4,26.6,29.83,WNW,283,0.0,1.0,93,0.00,,CLR,0.00,VWS V14.00,2013-03-01 13:26:00,
2013-03-01 08:30:00,28.5,26.7,29.83,WNW,283,0.0,1.0,93,0.00,,CLR,0.00,VWS V14.00,2013-03-01 13:30:00,
2013-03-01 08:31:00,28.8,27.0,29.83,WNW,283,0.0,0.0,93,0.00,,CLR,0.00,VWS V14.00,2013-03-01 13:31:00,
2013-03-01 08:37:00,29.1,27.3,29.83,WNW,283,0.0,0.0,93,0.00,,CLR,0.00,VWS V14.00,2013-03-01 13:37:00,
2013-03-01 08:42:00,29.5,27.7,29.83,WNW,283,0.0,0.0,93,0.00,,CLR,0.00,VWS V14.00,2013-03-01 13:42:00,
2013-03-01 08:47:00,29.9,28.1,29.84,WNW,283,0.0,0.0,93,0.00,,CLR,0.00,VWS V14.00,2013-03-01 13:47:00,
2013-03-01 08:52:00,30.3,28.3,29.84,WNW,283,0.0,0.0,92,0.00,,CLR,0.00,VWS V14.00,2013-03-01 13:52:00,
2013-03-01 08:57:00,30.8,28.8,29.84,WNW,283,0.0,0.0,92,0.00,,CLR,0.00,VWS V14.00,2013-03-01 13:57:00,
2013-03-01 09:00:00,30.9,28.9,29.84,WNW,283,0.0,0.0,92,0.00,,CLR,0.00,VWS V14.00,2013-03-01 14:00:00,
2013-03-01 09:02:00,31.3,29.2,29.84,WNW,283,0.0,0.0,92,0.00,,CLR,0.00,VWS V14.00,2013-03-01 14:02:00,
2013-03-01 09:06:00,31.8,29.8,29.84,WNW,283,0.0,1.0,92,0.00,,CLR,0.00,VWS V14.00,2013-03-01 14:06:00,
2013-03-01 09:11:00,32.0,29.7,29.84,WNW,283,0.0,1.0,91,0.00,,CLR,0.00,VWS V14.00,2013-03-01 14:11:00,
2013-03-01 09:16:00,32.4,30.1,29.84,WNW,283,0.0,1.0,91,0.00,,CLR,0.00,VWS V14.00,2013-03-01 14:16:00,
2013-03-01 09:21:00,32.9,30.6,29.84,WNW,283,0.0,1.0,91,0.00,,CLR,0.00,VWS V14.00,2013-03-01 14:21:00,
2013-03-01 09:27:00,33.4,31.1,29.84,WNW,283,0.0,1.0,91,0.00,,CLR,0.00,VWS V14.00,2013-03-01 14:27:00,
2013-03-01 09:30:00,33.5,31.2,29.84,WNW,283,0.0,1.0,91,0.00,,CLR,0.00,VWS V14.00,2013-03-01 14:30:00,
2013-03-01 09:32:00,34.1,31.8,29.84,WNW,283,0.0,0.0,91,0.00,,CLR,0.00,VWS V14.00,2013-03-01 14:32:00,
2013-03-01 09:37:00,34.6,32.0,29.84,WNW,283,0.0,0.0,90,0.00,,CLR,0.00,VWS V14.00,2013-03-01 14:37:00,
2013-03-01 09:42:00,35.3,32.4,29.84,WNW,283,0.0,1.0,89,0.00,,CLR,0.00,VWS V14.00,2013-03-01 14:42:00,
2013-03-01 09:47:00,36.0,32.8,29.83,WNW,283,0.0,1.0,88,0.00,,CLR,0.00,VWS V14.00,2013-03-01 14:47:00,
2013-03-01 09:52:00,36.6,33.1,29.83,WNW,283,0.0,1.0,87,0.00,,CLR,0.00,VWS V14.00,2013-03-01 14:52:00,
2013-03-01 09:57:00,37.3,33.2,29.83,WNW,283,0.0,1.0,85,0.00,,CLR,0.00,VWS V14.00,2013-03-01 14:57:00,
2013-03-01 10:00:00,37.4,33.3,29.83,WNW,283,0.0,1.0,85,0.00,,CLR,0.00,VWS V14.00,2013-03-01 15:00:00,
2013-03-01 10:02:00,37.9,33.2,29.83,WNW,283,0.0,0.0,83,0.00,,CLR,0.00,VWS V14.00,2013-03-01 15:02:00,
2013-03-01 10:07:00,38.4,33.4,29.83,WNW,283,0.0,1.0,82,0.00,,CLR,0.00,VWS V14.00,2013-03-01 15:07:00,
2013-03-01 10:12:00,38.9,33.6,29.83,WNW,283,0.0,2.0,81,0.00,,CLR,0.00,VWS V14.00,2013-03-01 15:12:00,
2013-03-01 10:17:00,39.4,32.8,29.84,WNW,283,1.0,2.0,77,0.00,,CLR,0.00,VWS V14.00,2013-03-01 15:17:00,
2013-03-01 10:22:00,40.1,33.2,29.84,WNW,292,0.0,3.0,76,0.00,,CLR,0.00,VWS V14.00,2013-03-01 15:22:00,
2013-03-01 10:27:00,40.4,33.1,29.84,WNW,292,0.0,3.0,75,0.00,,CLR,0.00,VWS V14.00,2013-03-01 15:27:00,
2013-03-01 10:30:00,40.5,33.2,29.83,WNW,292,0.0,3.0,75,0.00,,CLR,0.00,VWS V14.00,2013-03-01 15:30:00,
2013-03-01 10:32:00,40.7,33.1,29.83,East,90,0.0,1.0,74,0.00,,CLR,0.00,VWS V14.00,2013-03-01 15:32:00,
2013-03-01 10:37:00,41.0,33.0,29.83,WSW,238,1.0,1.0,73,0.00,,CLR,0.00,VWS V14.00,2013-03-01 15:37:00,
2013-03-01 10:42:00,41.1,32.4,29.83,WSW,239,0.0,1.0,71,0.00,,CLR,0.00,VWS V14.00,2013-03-01 15:42:00,
2013-03-01 10:47:00,41.2,32.2,29.83,SW,218,0.0,2.0,70,0.00,,CLR,0.00,VWS V14.00,2013-03-01 15:47:00,
2013-03-01 10:52:00,41.4,32.0,29.83,SW,218,1.0,2.0,69,0.00,,CLR,0.00,VWS V14.00,2013-03-01 15:52:00,
2013-03-01 10:57:00,41.5,31.7,29.83,SSW,208,6.0,6.0,68,0.00,,CLR,0.00,VWS V14.00,2013-03-01 15:57:00,
2013-03-01 11:00:00,41.6,31.1,29.83,SSW,200,2.0,6.0,66,0.00,,CLR,0.00,VWS V14.00,2013-03-01 16:00:00,
2013-03-01 11:02:00,41.6,31.5,29.83,SW,217,2.0,4.0,67,0.00,,CLR,0.00,VWS V14.00,2013-03-01 16:02:00,
2013-03-01 11:07:00,41.6,31.5,29.83,SSW,207,0.0,4.0,67,0.00,,CLR,0.00,VWS V14.00,2013-03-01 16:07:00,
2013-03-01 11:12:00,41.9,31.4,29.84,SSW,203,5.0,7.0,66,0.00,,CLR,0.00,VWS V14.00,2013-03-01 16:12:00,
2013-03-01 11:17:00,42.0,31.9,29.84,SSW,197,0.0,7.0,67,0.00,,CLR,0.00,VWS V14.00,2013-03-01 16:17:00,
2013-03-01 11:22:00,42.1,32.0,29.84,SSW,196,0.0,7.0,67,0.00,,CLR,0.00,VWS V14.00,2013-03-01 16:22:00,
2013-03-01 11:27:00,42.5,32.7,29.83,SSW,198,3.0,7.0,68,0.00,,CLR,0.00,VWS V14.00,2013-03-01 16:27:00,
2013-03-01 11:30:00,42.5,32.3,29.83,SSW,198,2.0,7.0,67,0.00,,CLR,0.00,VWS V14.00,2013-03-01 16:30:00,
2013-03-01 11:32:00,42.7,32.2,29.83,WSW,240,1.0,5.0,66,0.00,,CLR,0.00,VWS V14.00,2013-03-01 16:32:00,
2013-03-01 11:37:00,42.7,32.2,29.83,South,179,3.0,7.0,66,0.00,,CLR,0.00,VWS V14.00,2013-03-01 16:37:00,
2013-03-01 11:42:00,43.0,32.1,29.83,SSW,196,1.0,7.0,65,0.00,,CLR,0.00,VWS V14.00,2013-03-01 16:42:00,
2013-03-01 11:47:00,43.2,31.5,29.83,South,182,5.0,7.0,63,0.00,,CLR,0.00,VWS V14.00,2013-03-01 16:47:00,
2013-03-01 11:52:00,43.3,32.0,29.83,SSW,198,0.0,9.0,64,0.00,,CLR,0.00,VWS V14.00,2013-03-01 16:52:00,
2013-03-01 11:57:00,43.4,31.7,29.83,SSW,199,0.0,9.0,63,0.00,,CLR,0.00,VWS V14.00,2013-03-01 16:57:00,
2013-03-01 12:00:00,43.4,31.7,29.83,SSW,199,1.0,9.0,63,0.00,,CLR,0.00,VWS V14.00,2013-03-01 17:00:00,
2013-03-01 12:02:00,43.6,32.2,29.83,SW,217,2.0,10.0,64,0.00,,CLR,0.00,VWS V14.00,2013-03-01 17:02:00,
2013-03-01 12:07:00,43.6,31.0,29.83,SW,234,3.0,10.0,61,0.00,,CLR,0.00,VWS V14.00,2013-03-01 17:07:00,
2013-03-01 12:12:00,43.5,31.4,29.83,SW,214,2.0,10.0,62,0.00,,CLR,0.00,VWS V14.00,2013-03-01 17:12:00,
2013-03-01 12:17:00,43.6,31.5,29.83,SW,224,2.0,10.0,62,0.00,,CLR,0.00,VWS V14.00,2013-03-01 17:17:00,
2013-03-01 12:22:00,43.7,31.5,29.83,West,274,4.0,10.0,62,0.00,,CLR,0.00,VWS V14.00,2013-03-01 17:22:00,
2013-03-01 12:27:00,43.6,31.5,29.82,West,266,0.0,10.0,62,0.00,,CLR,0.00,VWS V14.00,2013-03-01 17:27:00,
2013-03-01 12:32:00,43.7,32.0,29.82,WNW,284,3.0,5.0,63,0.00,,CLR,0.00,VWS V14.00,2013-03-01 17:32:00,
2013-03-01 12:37:00,44.0,31.0,29.82,West,260,5.0,6.0,60,0.00,,CLR,0.00,VWS V14.00,2013-03-01 17:37:00,
2013-03-01 12:42:00,44.0,31.0,29.82,West,266,0.0,6.0,60,0.00,,CLR,0.00,VWS V14.00,2013-03-01 17:42:00,
2013-03-01 12:47:00,44.0,31.8,29.82,WNW,293,2.0,6.0,62,0.00,,CLR,0.00,VWS V14.00,2013-03-01 17:47:00,
2013-03-01 12:52:00,44.2,31.6,29.82,WSW,253,2.0,6.0,61,0.00,,CLR,0.00,VWS V14.00,2013-03-01 17:52:00,
2013-03-01 12:57:00,44.8,31.4,29.81,West,276,1.0,6.0,59,0.00,,CLR,0.00,VWS V14.00,2013-03-01 17:57:00,
2013-03-01 13:00:00,44.9,31.9,29.81,West,276,1.0,6.0,60,0.00,,CLR,0.00,VWS V14.00,2013-03-01 18:00:00,
2013-03-01 13:02:00,45.2,31.7,29.81,West,281,3.0,7.0,59,0.00,,CLR,0.00,VWS V14.00,2013-03-01 18:02:00,
2013-03-01 13:07:00,45.2,31.3,29.81,West,281,5.0,9.0,58,0.00,,CLR,0.00,VWS V14.00,2013-03-01 18:07:00,
2013-03-01 13:12:00,45.0,31.5,29.81,WSW,258,0.0,9.0,59,0.00,,CLR,0.00,VWS V14.00,2013-03-01 18:12:00,
2013-03-01 13:17:00,45.1,32.1,29.81,WSW,245,0.0,9.0,60,0.00,,CLR,0.00,VWS V14.00,2013-03-01 18:17:00,
2013-03-01 13:22:00,45.4,32.3,29.81,WSW,250,4.0,9.0,60,0.00,,CLR,0.00,VWS V14.00,2013-03-01 18:22:00,
2013-03-01 13:27:00,45.4,31.5,29.80,NNW,329,5.0,9.0,58,0.00,,CLR,0.00,VWS V14.00,2013-03-01 18:27:00,
2013-03-01 13:30:00,45.5,32.0,29.80,NNW,333,0.0,9.0,59,0.00,,CLR,0.00,VWS V14.00,2013-03-01 18:30:00,
2013-03-01 13:32:00,45.4,31.9,29.80,WSW,253,0.0,9.0,59,0.00,,CLR,0.00,VWS V14.00,2013-03-01 18:32:00,
2013-03-01 13:37:00,45.6,32.1,29.80,West,280,0.0,9.0,59,0.00,,CLR,0.00,VWS V14.00,2013-03-01 18:37:00,
2013-03-01 13:42:00,45.9,32.0,29.79,WNW,298,3.0,9.0,58,0.00,,CLR,0.00,VWS V14.00,2013-03-01 18:42:00,
2013-03-01 13:47:00,46.1,32.6,29.79,NNW,346,6.0,9.0,59,0.00,,CLR,0.00,VWS V14.00,2013-03-01 18:47:00,
2013-03-01 13:52:00,46.2,32.7,29.79,WNW,293,1.0,9.0,59,0.00,,CLR,0.00,VWS V14.00,2013-03-01 18:52:00,
2013-03-01 13:57:00,46.1,32.6,29.79,NW,307,1.0,9.0,59,0.00,,CLR,0.00,VWS V14.00,2013-03-01 18:57:00,
2013-03-01 14:02:00,45.9,32.4,29.79,NW,309,2.0,7.0,59,0.00,,CLR,0.00,VWS V14.00,2013-03-01 19:02:00,
2013-03-01 14:07:00,45.8,32.7,29.79,NW,307,1.0,9.0,60,0.00,,CLR,0.00,VWS V14.00,2013-03-01 19:07:00,
2013-03-01 14:12:00,45.8,32.3,29.78,NW,307,1.0,9.0,59,0.00,,CLR,0.00,VWS V14.00,2013-03-01 19:12:00,
2013-03-01 14:17:00,45.9,32.4,29.78,NW,309,0.0,9.0,59,0.00,,CLR,0.00,VWS V14.00,2013-03-01 19:17:00,
2013-03-01 14:22:00,46.3,32.3,29.78,SSW,201,1.0,9.0,58,0.00,,CLR,0.00,VWS V14.00,2013-03-01 19:22:00,
2013-03-01 14:27:00,46.3,32.8,29.78,WNW,289,1.0,9.0,59,0.00,,CLR,0.00,VWS V14.00,2013-03-01 19:27:00,
2013-03-01 14:30:00,46.3,32.8,29.78,West,270,1.0,9.0,59,0.00,,CLR,0.00,VWS V14.00,2013-03-01 19:30:00,
2013-03-01 14:32:00,46.5,32.1,29.78,NW,305,8.0,9.0,57,0.00,,CLR,0.00,VWS V14.00,2013-03-01 19:32:00,
2013-03-01 14:37:00,46.4,32.9,29.78,NW,304,5.0,9.0,59,0.00,,CLR,0.00,VWS V14.00,2013-03-01 19:37:00,
2013-03-01 14:42:00,46.3,32.8,29.78,WNW,300,1.0,9.0,59,0.00,,CLR,0.00,VWS V14.00,2013-03-01 19:42:00,
2013-03-01 14:47:00,46.3,32.8,29.78,West,281,1.0,9.0,59,0.00,,CLR,0.00,VWS V14.00,2013-03-01 19:47:00,
2013-03-01 14:52:00,46.7,33.2,29.78,West,275,2.0,9.0,59,0.00,,CLR,0.00,VWS V14.00,2013-03-01 19:52:00,
2013-03-01 14:57:00,47.0,32.6,29.77,West,267,1.0,9.0,57,0.00,,CLR,0.00,VWS V14.00,2013-03-01 19:57:00,
2013-03-01 15:00:00,47.0,32.6,29.77,WNW,285,6.0,9.0,57,0.00,,CLR,0.00,VWS V14.00,2013-03-01 20:00:00,
2013-03-01 15:02:00,47.3,33.3,29.77,West,259,2.0,7.0,58,0.00,,CLR,0.00,VWS V14.00,2013-03-01 20:02:00,
2013-03-01 15:07:00,47.7,32.8,29.77,West,260,0.0,7.0,56,0.00,,CLR,0.00,VWS V14.00,2013-03-01 20:07:00,
2013-03-01 15:12:00,48.0,32.2,29.77,WSW,246,0.0,7.0,54,0.00,,CLR,0.00,VWS V14.00,2013-03-01 20:12:00,
2013-03-01 15:17:00,48.2,32.8,29.77,WNW,282,4.0,7.0,55,0.00,,CLR,0.00,VWS V14.00,2013-03-01 20:17:00,
2013-03-01 15:22:00,48.1,32.3,29.77,NW,311,3.0,7.0,54,0.00,,CLR,0.00,VWS V14.00,2013-03-01 20:22:00,
2013-03-01 15:27:00,48.2,31.9,29.77,SSW,211,1.0,10.0,53,0.00,,CLR,0.00,VWS V14.00,2013-03-01 20:27:00,
2013-03-01 15:30:00,48.3,31.5,29.77,SW,221,5.0,10.0,52,0.00,,CLR,0.00,VWS V14.00,2013-03-01 20:30:00,
2013-03-01 15:32:00,49.0,32.6,29.77,SSW,211,3.0,6.0,53,0.00,,CLR,0.00,VWS V14.00,2013-03-01 20:32:00,
2013-03-01 15:37:00,50.1,33.2,29.77,West,272,4.0,9.0,52,0.00,,CLR,0.00,VWS V14.00,2013-03-01 20:37:00,
2013-03-01 15:42:00,50.4,32.5,29.77,SW,219,3.0,10.0,50,0.00,,CLR,0.00,VWS V14.00,2013-03-01 20:42:00,
2013-03-01 15:47:00,49.6,32.7,29.77,SSW,198,6.0,10.0,52,0.00,,CLR,0.00,VWS V14.00,2013-03-01 20:47:00,
2013-03-01 15:52:00,48.6,31.8,29.77,South,180,3.0,10.0,52,0.00,,CLR,0.00,VWS V14.00,2013-03-01 20:52:00,
2013-03-01 15:57:00,48.5,32.6,29.77,SSW,208,5.0,10.0,54,0.00,,CLR,0.00,VWS V14.00,2013-03-01 20:57:00,
2013-03-01 16:02:00,48.2,31.4,29.77,WSW,252,8.0,10.0,52,0.00,,CLR,0.00,VWS V14.00,2013-03-01 21:02:00,
2013-03-01 16:07:00,47.9,31.6,29.77,SSW,197,12.0,14.0,53,0.00,,CLR,0.00,VWS V14.00,2013-03-01 21:07:00,
2013-03-01 16:12:00,47.6,31.3,29.76,SW,226,3.0,14.0,53,0.00,,CLR,0.00,VWS V14.00,2013-03-01 21:12:00,
2013-03-01 16:17:00,47.3,31.5,29.76,SSW,201,4.0,14.0,54,0.00,,CLR,0.00,VWS V14.00,2013-03-01 21:17:00,
2013-03-01 16:22:00,47.3,31.5,29.76,SW,221,7.0,14.0,54,0.00,,CLR,0.00,VWS V14.00,2013-03-01 21:22:00,
2013-03-01 16:27:00,47.2,31.4,29.76,SW,231,2.0,14.0,54,0.00,,CLR,0.00,VWS V14.00,2013-03-01 21:27:00,
2013-03-01 16:30:00,47.2,31.4,29.76,South,187,9.0,14.0,54,0.00,,CLR,0.00,VWS V14.00,2013-03-01 21:30:00,
2013-03-01 16:32:00,47.2,31.4,29.76,SSW,193,2.0,14.0,54,0.00,,CLR,0.00,VWS V14.00,2013-03-01 21:32:00,
2013-03-01 16:37:00,47.2,31.4,29.76,West,271,2.0,14.0,54,0.00,,CLR,0.00,VWS V14.00,2013-03-01 21:37:00,
2013-03-01 16:42:00,47.1,31.3,29.76,WSW,255,10.0,14.0,54,0.00,,CLR,0.00,VWS V14.00,2013-03-01 21:42:00,
2013-03-01 16:47:00,46.8,30.6,29.76,WSW,239,2.0,14.0,53,0.00,,CLR,0.00,VWS V14.00,2013-03-01 21:47:00,
2013-03-01 16:52:00,46.7,31.4,29.76,WSW,242,3.0,14.0,55,0.00,,CLR,0.00,VWS V14.00,2013-03-01 21:52:00,
2013-03-01 16:57:00,46.7,31.4,29.76,SSW,212,2.0,14.0,55,0.00,,CLR,0.00,VWS V14.00,2013-03-01 21:57:00,
2013-03-01 17:02:00,46.6,30.9,29.76,SW,236,2.0,6.0,54,0.00,,CLR,0.00,VWS V14.00,2013-03-01 22:02:00,
2013-03-01 17:07:00,46.4,31.1,29.76,West,269,2.0,7.0,55,0.00,,CLR,0.00,VWS V14.00,2013-03-01 22:07:00,
2013-03-01 17:12:00,46.3,31.0,29.77,WSW,256,2.0,7.0,55,0.00,,CLR,0.00,VWS V14.00,2013-03-01 22:12:00,
2013-03-01 17:17:00,46.1,31.3,29.77,SW,214,4.0,7.0,56,0.00,,CLR,0.00,VWS V14.00,2013-03-01 22:17:00,
2013-03-01 17:22:00,46.0,31.2,29.77,SW,219,2.0,7.0,56,0.00,,CLR,0.00,VWS V14.00,2013-03-01 22:22:00,
2013-03-01 17:27:00,46.0,31.2,29.77,SSW,207,5.0,7.0,56,0.00,,CLR,0.00,VWS V14.00,2013-03-01 22:27:00,
2013-03-01 17:32:00,45.9,31.1,29.77,SSW,203,4.0,6.0,56,0.00,,CLR,0.00,VWS V14.00,2013-03-01 22:32:00,
2013-03-01 17:37:00,45.8,31.0,29.77,WSW,238,3.0,6.0,56,0.00,,CLR,0.00,VWS V14.00,2013-03-01 22:37:00,
2013-03-01 17:42:00,45.6,31.3,29.78,WSW,250,0.0,6.0,57,0.00,,CLR,0.00,VWS V14.00,2013-03-01 22:42:00,
2013-03-01 17:47:00,45.5,31.2,29.78,WNW,293,2.0,6.0,57,0.00,,CLR,0.00,VWS V14.00,2013-03-01 22:47:00,
2013-03-01 17:52:00,45.3,31.0,29.78,SW,224,2.0,9.0,57,0.00,,CLR,0.00,VWS V14.00,2013-03-01 22:52:00,
2013-03-01 17:57:00,45.1,30.8,29.79,WSW,251,4.0,9.0,57,0.00,,CLR,0.00,VWS V14.00,2013-03-01 22:57:00,
2013-03-01 18:00:00,45.1,30.8,29.79,WSW,247,3.0,9.0,57,0.00,,CLR,0.00,VWS V14.00,2013-03-01 23:00:00,
2013-03-01 18:02:00,45.0,30.7,29.79,WSW,257,5.0,5.0,57,0.00,,CLR,0.00,VWS V14.00,2013-03-01 23:02:00,
2013-03-01 18:07:00,44.9,30.6,29.79,West,265,2.0,9.0,57,0.00,,CLR,0.00,VWS V14.00,2013-03-01 23:07:00,
2013-03-01 18:12:00,44.7,30.9,29.79,SW,226,1.0,9.0,58,0.00,,CLR,0.00,VWS V14.00,2013-03-01 23:12:00,
2013-03-01 18:17:00,44.6,30.8,29.79,West,267,2.0,9.0,58,0.00,,CLR,0.00,VWS V14.00,2013-03-01 23:17:00,
2013-03-01 18:22:00,44.5,30.7,29.79,WSW,252,1.0,9.0,58,0.00,,CLR,0.00,VWS V14.00,2013-03-01 23:22:00,
2013-03-01 18:27:00,44.3,30.9,29.79,WSW,256,0.0,9.0,59,0.00,,CLR,0.00,VWS V14.00,2013-03-01 23:27:00,
2013-03-01 18:30:00,44.3,30.9,29.79,WSW,257,0.0,9.0,59,0.00,,CLR,0.00,VWS V14.00,2013-03-01 23:30:00,
2013-03-01 18:32:00,44.2,30.8,29.79,NW,311,0.0,4.0,59,0.00,,CLR,0.00,VWS V14.00,2013-03-01 23:32:00,
2013-03-01 18:37:00,44.1,31.1,29.79,NW,321,0.0,4.0,60,0.00,,CLR,0.00,VWS V14.00,2013-03-01 23:37:00,
2013-03-01 18:42:00,44.0,31.0,29.79,NW,310,1.0,4.0,60,0.00,,CLR,0.00,VWS V14.00,2013-03-01 23:42:00,
2013-03-01 18:47:00,43.9,30.9,29.79,WNW,303,3.0,4.0,60,0.00,,CLR,0.00,VWS V14.00,2013-03-01 23:47:00,
2013-03-01 18:52:00,43.8,30.8,29.79,WNW,298,1.0,4.0,60,0.00,,CLR,0.00,VWS V14.00,2013-03-01 23:52:00,
2013-03-01 18:57:00,43.7,30.7,29.79,WNW,297,0.0,5.0,60,0.00,,CLR,0.00,VWS V14.00,2013-03-01 23:57:00,
2013-03-01 19:00:00,43.7,30.7,29.79,NW,314,5.0,6.0,60,0.00,,CLR,0.00,VWS V14.00,2013-03-02 00:00:00,
2013-03-01 19:02:00,43.7,30.7,29.79,NW,326,5.0,7.0,60,0.00,,CLR,0.00,VWS V14.00,2013-03-02 00:02:00,
2013-03-01 19:07:00,43.7,30.7,29.79,NW,326,4.0,8.0,60,0.00,,CLR,0.00,VWS V14.00,2013-03-02 00:07:00,
2013-03-01 19:12:00,43.7,30.7,29.80,NW,307,0.0,8.0,60,0.00,,CLR,0.00,VWS V14.00,2013-03-02 00:12:00,
2013-03-01 19:17:00,43.6,30.6,29.80,WNW,295,1.0,8.0,60,0.00,,CLR,0.00,VWS V14.00,2013-03-02 00:17:00,
2013-03-01 19:22:00,43.5,31.0,29.80,WNW,295,0.0,8.0,61,0.00,,CLR,0.00,VWS V14.00,2013-03-02 00:22:00,
2013-03-01 19:27:00,43.4,30.9,29.80,WNW,295,0.0,8.0,61,0.00,,CLR,0.00,VWS V14.00,2013-03-02 00:27:00,
2013-03-01 19:30:00,43.4,30.9,29.80,WNW,295,0.0,8.0,61,0.00,,CLR,0.00,VWS V14.00,2013-03-02 00:30:00,
2013-03-01 19:32:00,43.3,30.8,29.80,WNW,294,0.0,1.0,61,0.00,,CLR,0.00,VWS V14.00,2013-03-02 00:32:00,
2013-03-01 19:37:00,43.2,31.1,29.80,WNW,288,0.0,4.0,62,0.00,,CLR,0.00,VWS V14.00,2013-03-02 00:37:00,
2013-03-01 19:42:00,43.2,31.1,29.81,WNW,283,0.0,4.0,62,0.00,,CLR,0.00,VWS V14.00,2013-03-02 00:42:00,
2013-03-01 19:47:00,43.1,31.0,29.81,WNW,293,0.0,4.0,62,0.00,,CLR,0.00,VWS V14.00,2013-03-02 00:47:00,
2013-03-01 19:52:00,43.1,31.4,29.81,WNW,293,0.0,4.0,63,0.00,,CLR,0.00,VWS V14.00,2013-03-02 00:52:00,
2013-03-01 19:57:00,42.9,31.2,29.81,WNW,294,0.0,4.0,63,0.00,,CLR,0.00,VWS V14.00,2013-03-02 00:57:00,
2013-03-01 20:02:00,42.8,31.5,29.81,WNW,291,0.0,1.0,64,0.00,,CLR,0.00,VWS V14.00,2013-03-02 01:02:00,
2013-03-01 20:07:00,42.7,31.4,29.81,WNW,291,1.0,1.0,64,0.00,,CLR,0.00,VWS V14.00,2013-03-02 01:07:00,
2013-03-01 20:12:00,42.6,31.3,29.81,WNW,292,1.0,3.0,64,0.00,,CLR,0.00,VWS V14.00,2013-03-02 01:12:00,
2013-03-01 20:17:00,42.6,31.7,29.81,WNW,291,0.0,3.0,65,0.00,,CLR,0.00,VWS V14.00,2013-03-02 01:17:00,
2013-03-01 20:22:00,42.4,31.5,29.81,WNW,291,0.0,3.0,65,0.00,,CLR,0.00,VWS V14.00,2013-03-02 01:22:00,
2013-03-01 20:27:00,42.3,31.8,29.81,WNW,292,0.0,3.0,66,0.00,,CLR,0.00,VWS V14.00,2013-03-02 01:27:00,
2013-03-01 20:30:00,42.3,31.8,29.81,WNW,292,0.0,3.0,66,0.00,,CLR,0.00,VWS V14.00,2013-03-02 01:30:00,
2013-03-01 20:32:00,42.1,31.6,29.81,WNW,292,0.0,2.0,66,0.00,,CLR,0.00,VWS V14.00,2013-03-02 01:32:00,
2013-03-01 20:37:00,42.0,31.9,29.81,WNW,294,0.0,2.0,67,0.00,,CLR,0.00,VWS V14.00,2013-03-02 01:37:00,
2013-03-01 20:42:00,41.9,31.8,29.81,WNW,294,0.0,2.0,67,0.00,,CLR,0.00,VWS V14.00,2013-03-02 01:42:00,
2013-03-01 20:47:00,41.8,31.7,29.81,WNW,294,0.0,2.0,67,0.00,,CLR,0.00,VWS V14.00,2013-03-02 01:47:00,
2013-03-01 20:52:00,41.8,31.3,29.81,WNW,294,0.0,2.0,66,0.00,,CLR,0.00,VWS V14.00,2013-03-02 01:52:00,
2013-03-01 20:57:00,41.8,31.3,29.81,WNW,294,0.0,2.0,66,0.00,,CLR,0.00,VWS V14.00,2013-03-02 01:57:00,
2013-03-01 21:00:00,41.8,31.3,29.81,WNW,294,1.0,2.0,66,0.00,,CLR,0.00,VWS V14.00,2013-03-02 02:00:00,
2013-03-01 21:02:00,41.8,31.3,29.81,WNW,294,0.0,1.0,66,0.00,,CLR,0.00,VWS V14.00,2013-03-02 02:02:00,
2013-03-01 21:07:00,41.7,31.6,29.81,WNW,294,0.0,1.0,67,0.00,,CLR,0.00,VWS V14.00,2013-03-02 02:07:00,
2013-03-01 21:12:00,41.7,31.6,29.81,WNW,293,0.0,3.0,67,0.00,,CLR,0.00,VWS V14.00,2013-03-02 02:12:00,
2013-03-01 21:17:00,41.7,31.2,29.81,WNW,293,0.0,3.0,66,0.00,,CLR,0.00,VWS V14.00,2013-03-02 02:17:00,
2013-03-01 21:22:00,41.7,31.2,29.81,WNW,293,0.0,3.0,66,0.00,,CLR,0.00,VWS V14.00,2013-03-02 02:22:00,
2013-03-01 21:27:00,41.6,31.5,29.81,WNW,293,0.0,3.0,67,0.00,,CLR,0.00,VWS V14.00,2013-03-02 02:27:00,
2013-03-01 21:30:00,41.6,31.5,29.81,WNW,293,0.0,3.0,67,0.00,,CLR,0.00,VWS V14.00,2013-03-02 02:30:00,
2013-03-01 21:32:00,41.6,31.5,29.81,WNW,293,0.0,0.0,67,0.00,,CLR,0.00,VWS V14.00,2013-03-02 02:32:00,
2013-03-01 21:37:00,41.5,31.7,29.81,WNW,294,0.0,2.0,68,0.00,,CLR,0.00,VWS V14.00,2013-03-02 02:37:00,
2013-03-01 21:42:00,41.4,31.6,29.81,WNW,294,2.0,3.0,68,0.00,,CLR,0.00,VWS V14.00,2013-03-02 02:42:00,
2013-03-01 21:47:00,41.3,31.9,29.81,WNW,294,0.0,3.0,69,0.00,,CLR,0.00,VWS V14.00,2013-03-02 02:47:00,
2013-03-01 21:52:00,41.3,31.5,29.81,WNW,294,0.0,3.0,68,0.00,,CLR,0.00,VWS V14.00,2013-03-02 02:52:00,
2013-03-01 21:57:00,41.2,31.5,29.82,WNW,294,0.0,3.0,68,0.00,,CLR,0.00,VWS V14.00,2013-03-02 02:57:00,
2013-03-01 22:00:00,41.2,31.5,29.82,WNW,294,0.0,3.0,68,0.00,,CLR,0.00,VWS V14.00,2013-03-02 03:00:00,
2013-03-01 22:02:00,41.1,31.4,29.82,WNW,294,0.0,1.0,68,0.00,,CLR,0.00,VWS V14.00,2013-03-02 03:02:00,
2013-03-01 22:07:00,41.1,31.7,29.82,WNW,294,0.0,1.0,69,0.00,,CLR,0.00,VWS V14.00,2013-03-02 03:07:00,
2013-03-01 22:12:00,40.9,31.5,29.82,WNW,294,0.0,2.0,69,0.00,,CLR,0.00,VWS V14.00,2013-03-02 03:12:00,
2013-03-01 22:17:00,40.9,31.2,29.82,WNW,293,0.0,3.0,68,0.00,,CLR,0.00,VWS V14.00,2013-03-02 03:17:00,
2013-03-01 22:22:00,41.0,31.3,29.82,WNW,285,0.0,4.0,68,0.00,,CLR,0.00,VWS V14.00,2013-03-02 03:22:00,
2013-03-01 22:27:00,41.0,31.3,29.82,WNW,294,1.0,5.0,68,0.00,,CLR,0.00,VWS V14.00,2013-03-02 03:27:00,
2013-03-01 22:30:00,41.0,31.3,29.82,West,281,6.0,6.0,68,0.00,,CLR,0.00,VWS V14.00,2013-03-02 03:30:00,
2013-03-01 22:32:00,41.1,31.4,29.82,NW,307,3.0,6.0,68,0.00,,CLR,0.00,VWS V14.00,2013-03-02 03:32:00,
2013-03-01 22:37:00,41.1,31.0,29.82,WNW,285,1.0,6.0,67,0.00,,CLR,0.00,VWS V14.00,2013-03-02 03:37:00,
2013-03-01 22:42:00,41.1,31.0,29.82,WNW,283,3.0,9.0,67,0.00,,CLR,0.00,VWS V14.00,2013-03-02 03:42:00,
2013-03-01 22:47:00,41.2,31.1,29.82,West,278,7.0,9.0,67,0.00,,CLR,0.00,VWS V14.00,2013-03-02 03:47:00,
2013-03-01 22:52:00,41.3,30.8,29.82,WNW,299,3.0,9.0,66,0.00,,CLR,0.00,VWS V14.00,2013-03-02 03:52:00,
2013-03-01 22:57:00,41.3,30.8,29.82,West,277,1.0,9.0,66,0.00,,CLR,0.00,VWS V14.00,2013-03-02 03:57:00,
2013-03-01 23:00:00,41.3,30.8,29.82,West,278,0.0,9.0,66,0.00,,CLR,0.00,VWS V14.00,2013-03-02 04:00:00,
2013-03-01 23:02:00,41.3,30.8,29.82,WNW,292,0.0,3.0,66,0.00,,CLR,0.00,VWS V14.00,2013-03-02 04:02:00,
2013-03-01 23:07:00,41.2,30.7,29.82,West,281,1.0,4.0,66,0.00,,CLR,0.00,VWS V14.00,2013-03-02 04:07:00,
2013-03-01 23:12:00,41.2,30.7,29.82,WNW,291,0.0,4.0,66,0.00,,CLR,0.00,VWS V14.00,2013-03-02 04:12:00,
2013-03-01 23:17:00,41.1,30.6,29.82,WNW,295,0.0,4.0,66,0.00,,CLR,0.00,VWS V14.00,2013-03-02 04:17:00,
2013-03-01 23:22:00,41.1,30.6,29.82,WNW,295,0.0,4.0,66,0.00,,CLR,0.00,VWS V14.00,2013-03-02 04:22:00,
2013-03-01 23:27:00,41.0,30.9,29.81,WNW,295,0.0,4.0,67,0.00,,CLR,0.00,VWS V14.00,2013-03-02 04:27:00,
2013-03-01 23:30:00,41.0,30.9,29.81,WNW,295,0.0,4.0,67,0.00,,CLR,0.00,VWS V14.00,2013-03-02 04:30:00,
2013-03-01 23:33:00,40.9,30.8,29.81,WNW,296,1.0,1.0,67,0.00,,CLR,0.00,VWS V14.00,2013-03-02 04:33:00,
2013-03-01 23:38:00,40.8,30.7,29.81,NNW,328,0.0,3.0,67,0.00,,CLR,0.00,VWS V14.00,2013-03-02 04:38:00,
2013-03-01 23:43:00,40.8,31.1,29.81,NNW,328,0.0,3.0,68,0.00,,CLR,0.00,VWS V14.00,2013-03-02 04:43:00,
2013-03-01 23:48:00,40.7,31.0,29.81,NNW,328,0.0,3.0,68,0.00,,CLR,0.00,VWS V14.00,2013-03-02 04:48:00,
2013-03-01 23:53:00,40.6,31.2,29.81,NNW,328,0.0,3.0,69,0.00,,CLR,0.00,VWS V14.00,2013-03-02 04:53:00,
2013-03-01 23:58:00,40.5,30.8,29.81,NNW,328,0.0,3.0,68,0.00,,CLR,0.00,VWS V14.00,2013-03-02 04:58:00,